Simultaneous Nadir Overpasses (SNOs) Predictions

Prediction of SNOs between AQUA and METOP-B Satellite Orbit:

Table of predicted SNOs for the next 14.0 days since TLE Epoch: 5/6/2014
Index Date (AQUA) Time (AQUA) Lat,Lon (AQUA) SZA (AQUA ) Date (METOP-B) Time (METOP-B) Lat,Lon (METOP-B) SZA (METOP-B ) Distance(km) Time Diff (sec)
1 05/06/2014 21:36:15 -73.74, 30.51 123.00 05/06/2014 21:35:09 -73.73, 30.56 123.00 1.49 66
2 05/06/2014 22:25:44 73.80,-161.98 57.06 05/06/2014 22:25:47 73.81,-161.92 57.07 2.37 3
3 05/06/2014 23:15:13 -73.99, 5.23 122.75 05/06/2014 23:16:25 -74.01, 5.88 122.75 20.09 72
4 05/09/2014 17:10:30 -73.74, 96.95 123.76 05/09/2014 17:09:32 -73.74, 96.97 123.76 0.66 58
5 05/09/2014 17:59:59 73.80, -95.56 56.30 05/09/2014 18:00:10 73.82, -95.51 56.32 2.60 11
6 05/09/2014 18:49:34 -74.30, 70.95 123.18 05/09/2014 18:50:42 -74.31, 73.03 123.23 62.65 68
7 05/12/2014 12:44:45 -73.72, 163.43 124.51 05/12/2014 12:43:56 -73.74, 163.37 124.48 3.08 49
8 05/12/2014 13:34:15 73.84, -29.20 55.61 05/12/2014 13:34:34 73.82, -29.11 55.59 3.49 19
9 05/15/2014 08:19:00 -73.73,-130.16 125.18 05/15/2014 08:18:20 -73.73,-130.25 125.17 2.83 40
10 05/15/2014 09:08:29 73.80, 37.31 54.89 05/15/2014 09:08:58 73.82, 37.28 54.90 1.86 29
11 05/18/2014 03:53:14 -73.78, -63.82 125.78 05/18/2014 03:52:42 -73.77, -63.77 125.78 1.73 32
12 05/18/2014 04:42:42 73.80, 103.76 54.25 05/18/2014 04:43:21 73.80, 103.65 54.25 3.47 39




NCC Satellite Simultaneous Nadir Overpasses (SNOs) Prediction Service
